GW3691 Weather Reports


Display with metric or nautical units.
time (UTC)temp
F
wind
direction
speed
MPH
gust
MPH
rain 1hr
in
rain 24hr
in
rain mn
in
humidity
%
barometer
mb
20260502203018 69 217 1.0 2.0 0.00 0.59 0.59 93 1012.5
20260502202514 69 224 1.0 1.0 0.00 0.59 0.59 93 1012.6
20260502202013 69 205 2.0 2.0 0.00 0.59 0.59 93 1012.6
20260502201508 69 237 5.0 7.0 0.00 0.59 0.59 93 1012.0
20260502201005 69 207 4.0 6.0 0.00 0.59 0.59 93 1013.0
20260502200501 69 26 2.0 2.0 0.00 0.59 0.59 93 1012.9
20260502195959 69 225 4.0 6.0 0.05 0.59 0.59 93 1013.0
20260502195456 68 190 2.0 3.0 0.05 0.59 0.59 93 1013.6
20260502194951 69 212 4.0 5.0 0.07 0.58 0.58 93 1013.9
20260502194448 68 194 4.0 5.0 0.07 0.58 0.58 93 1014.0
20260502193944 68 172 1.0 1.0 0.00 0.57 0.57 93 1013.7
20260502193442 68 173 3.0 5.0 0.00 0.57 0.57 93 1013.8
20260502192938 68 194 5.0 7.0 0.00 0.57 0.57 93 1013.3
20260502192435 68 247 4.0 6.0 0.00 0.57 0.57 93 1013.6
20260502191931 68 197 5.0 6.0 0.00 0.57 0.57 94 1014.0
20260502191429 68 182 4.0 6.0 0.00 0.57 0.57 94 1013.7
20260502190926 68 197 2.0 3.0 0.00 0.57 0.57 94 1014.0
20260502190424 68 240 2.0 5.0 0.05 0.57 0.57 94 1013.7
20260502185920 68 168 2.0 2.0 0.17 0.57 0.57 94 1013.9
20260502185415 68 177 1.0 1.0 0.19 0.56 0.56 94 1013.7
20260502184913 68 227 1.0 2.0 0.19 0.54 0.54 93 1013.3
20260502184408 68 200 1.0 1.0 0.24 0.53 0.53 93 1013.7
20260502183904 68 188 3.0 5.0 0.24 0.51 0.51 93 1013.8
20260502183400 68 182 2.0 2.0 0.19 0.48 0.48 93 1013.9
20260502182856 68 173 2.0 3.0 0.05 0.46 0.46 93 1014.3
20260502182353 69 168 2.0 3.0 0.12 0.45 0.45 93 1014.7
20260502181849 69 233 5.0 8.0 0.35 0.44 0.44 93 1014.9
20260502181348 70 311 7.0 9.0 2.34 0.43 0.43 93 1015.2
20260502180845 73 239 12.0 15.0 1.44 0.27 0.27 91 1015.7
20260502180341 74 178 1.0 1.0 0.24 0.04 0.04 88 1013.9
20260502170300 81 222 4.0 6.0 0.00 0.00 0.00 70 1013.7
20260502164248 82 167 2.0 2.0 0.00 0.00 0.00 69 1013.5
20260502163743 82 203 2.0 2.0 0.00 0.00 0.00 70 1013.6
20260502163240 82 192 3.0 3.0 0.00 0.00 0.00 71 1013.9
20260502162737 82 198 1.0 2.0 0.00 0.00 0.00 72 1013.7
20260502162234 81 218 3.0 3.0 0.00 0.00 0.00 72 1013.8
20260502161731 80 170 2.0 2.0 0.00 0.00 0.00 72 1013.9
20260502161227 80 186 3.0 5.0 0.00 0.00 0.00 73 1014.1
20260502160726 80 234 4.0 5.0 0.00 0.00 0.00 73 1014.1
20260502160225 80 215 3.0 5.0 0.00 0.00 0.00 73 1013.8
20260502152148 79 174 3.0 3.0 0.00 0.00 0.00 73 1014.0
20260502151646 78 185 1.0 2.0 0.00 0.00 0.00 74 1013.9
20260502151143 79 182 3.0 3.0 0.00 0.00 0.00 74 1014.2
20260502150640 78 177 1.0 1.0 0.00 0.00 0.00 76 1014.3
20260502150137 78 188 2.0 2.0 0.00 0.00 0.00 77 1014.5
20260502130525 73 167 1.0 1.0 0.00 0.00 0.00 90 1014.1
20260502123509 71 167 0.0 1.0 0.00 0.00 0.00 94 1013.7
20260502123005 71 164 0.0 1.0 0.00 0.00 0.00 95 1013.8
20260502122501 70 168 1.0 1.0 0.00 0.00 0.00 95 1013.7
20260502121959 70 187 1.0 2.0 0.00 0.00 0.00 95 1013.7
20260502121456 70 174 0.0 0.0 0.00 0.00 0.00 95 1013.7
20260502120954 70 161 0.0 0.0 0.00 0.00 0.00 96 1013.6
20260502120450 70 169 0.0 0.0 0.00 0.00 0.00 96 1013.4
20260502115444 70 170 0.0 0.0 0.00 0.00 0.00 96 1013.5
20260502114940 69 170 0.0 0.0 0.00 0.00 0.00 96 1013.5
20260502114437 69 169 0.0 0.0 0.00 0.00 0.00 96 1013.4
20260502113934 69 174 0.0 0.0 0.00 0.00 0.00 96 1013.5
20260502113432 69 171 0.0 0.0 0.00 0.00 0.00 96 1013.6
20260502112931 69 172 0.0 0.0 0.00 0.00 0.00 96 1013.3
20260502112427 69 171 0.0 0.0 0.00 0.00 0.00 96 1013.6
20260502111925 69 166 0.0 0.0 0.00 0.00 0.00 96 1013.6
20260502111422 69 178 0.0 0.0 0.00 0.00 0.00 96 1013.3
20260502110919 69 178 0.0 0.0 0.00 0.00 0.00 96 1013.1
20260502110417 69 178 0.0 0.0 0.00 0.00 0.00 96 1013.1
20260502105914 69 178 0.0 0.0 0.00 0.00 0.00 95 1013.1
20260502105411 69 178 0.0 0.0 0.00 0.00 0.00 95 1012.9
20260502104909 69 178 0.0 0.0 0.00 0.00 0.00 95 1012.7
20260502104406 69 178 0.0 0.0 0.00 0.00 0.00 95 1012.8
20260502103903 69 176 0.0 0.0 0.00 0.00 0.00 95 1012.6
20260502103401 69 175 0.0 0.0 0.00 0.00 0.00 95 1012.3
20260502102857 69 175 0.0 0.0 0.00 0.00 0.00 95 1012.4
20260502102354 69 175 0.0 0.0 0.00 0.00 0.00 95 1012.3
20260502101852 69 175 0.0 0.0 0.00 0.00 0.00 95 1012.4
20260502101350 69 173 0.0 0.0 0.00 0.00 0.00 95 1012.2
20260502100848 69 173 0.0 0.0 0.00 0.00 0.00 95 1012.4
20260502100347 70 173 0.0 0.0 0.00 0.00 0.00 95 1012.5
20260502091320 70 155 0.0 0.0 0.00 0.00 0.00 94 1013.2
20260502090818 70 165 0.0 0.0 0.00 0.00 0.00 94 1013.2
20260502090315 70 165 0.0 0.0 0.00 0.00 0.00 93 1013.4
20260502071210 72 170 0.0 0.0 0.00 0.00 0.00 92 1013.7
20260502070708 72 166 0.0 0.0 0.00 0.00 0.00 92 1013.9
20260502070205 72 155 0.0 0.0 0.00 0.00 0.00 92 1013.6
20260502065704 73 157 0.0 0.0 0.00 0.00 0.00 91 1013.5
20260502065201 73 163 0.0 0.0 0.00 0.00 0.00 91 1013.7
20260502064700 73 181 0.0 0.0 0.00 0.00 0.00 91 1013.9
20260502064156 73 155 0.0 0.0 0.00 0.00 0.00 91 1013.9
20260502063654 73 152 0.0 0.0 0.00 0.00 0.00 91 1013.9
20260502063152 73 154 0.0 0.0 0.00 0.00 0.00 91 1013.8
20260502062649 73 147 0.0 0.0 0.00 0.00 0.00 91 1014.0
20260502062146 73 166 0.0 0.0 0.00 0.00 0.00 91 1014.5
20260502061644 73 132 0.0 1.0 0.00 0.00 0.00 91 1014.2
20260502061142 73 159 0.0 0.0 0.00 0.00 0.00 91 1014.2
20260502060642 73 147 1.0 2.0 0.00 0.00 0.00 91 1014.3
20260502060139 73 155 0.0 0.0 0.00 0.00 0.00 92 1014.3
20260502055637 73 335 1.0 2.0 0.00 0.00 0.00 92 1014.2
20260502055134 73 111 1.0 1.0 0.00 0.00 0.00 92 1014.4
20260502054633 73 151 0.0 0.0 0.00 0.00 0.00 92 1014.4
20260502054130 73 158 1.0 1.0 0.00 0.00 0.00 92 1014.5
20260502053627 73 150 0.0 1.0 0.00 0.00 0.00 91 1014.5
20260502053125 73 168 0.0 0.0 0.00 0.00 0.00 91 1014.5
20260502052623 73 159 0.0 0.0 0.00 0.00 0.00 91 1014.7
20260502052121 73 172 0.0 0.0 0.00 0.00 0.00 91 1014.6
20260502051619 73 95 1.0 2.0 0.00 0.00 0.00 91 1014.9
20260502051117 73 168 0.0 0.0 0.00 0.00 0.00 91 1014.8
20260502050612 73 165 0.0 0.0 0.00 0.00 0.00 91 1015.0
20260502050109 73 166 0.0 0.0 0.00 0.00 0.00 92 1014.9
20260502045606 72 158 0.0 0.0 0.00 0.00 0.00 92 1014.8
20260502045103 72 173 0.0 0.0 0.00 0.00 0.00 92 1014.8
20260502044559 72 166 0.0 0.0 0.00 0.00 0.00 92 1015.1
20260502044056 71 170 0.0 0.0 0.00 0.00 0.00 92 1014.9
20260502043554 71 175 0.0 0.0 0.00 0.00 0.00 92 1014.9
20260502043050 71 168 0.0 0.0 0.00 0.00 0.00 93 1015.2
20260502042545 71 165 0.0 0.0 0.00 0.00 0.00 92 1014.8
20260502042043 71 158 0.0 0.0 0.00 0.00 0.00 92 1014.6
20260502041540 71 176 1.0 2.0 0.00 0.00 0.00 92 1014.6
20260502041037 71 179 0.0 0.0 0.00 0.00 0.00 92 1014.7
20260502040533 71 173 0.0 0.0 0.00 0.00 0.00 92 1014.4
20260502040031 71 173 0.0 0.0 0.00 0.00 0.00 92 1014.4
20260502035526 71 172 0.0 0.0 0.00 0.00 0.00 92 1014.5
20260502035024 71 173 0.0 0.0 0.00 0.00 0.00 92 1014.6
20260502034522 71 173 0.0 0.0 0.00 0.00 0.00 92 1014.6
20260502034021 71 173 0.0 0.0 0.00 0.00 0.00 91 1014.8
20260502033518 71 173 0.0 0.0 0.00 0.00 0.00 91 1014.9
20260502033015 71 173 0.0 0.0 0.00 0.00 0.00 91 1014.8
20260502032511 71 173 0.0 0.0 0.00 0.00 0.00 91 1014.9
20260502032008 71 173 0.0 0.0 0.00 0.00 0.00 91 1014.8
20260502031506 71 173 0.0 0.0 0.00 0.00 0.00 91 1014.9
20260502031004 72 173 0.0 0.0 0.00 0.00 0.00 91 1015.0
20260502030502 71 173 0.0 0.0 0.00 0.00 0.00 90 1014.9
20260502030000 71 173 0.0 0.0 0.00 0.00 0.00 90 1015.0
20260502025456 72 173 0.0 0.0 0.00 0.00 0.00 90 1014.7
20260502024954 72 168 0.0 0.0 0.00 0.00 0.00 90 1014.8
20260502024452 72 168 0.0 0.0 0.00 0.00 0.00 90 1014.7
20260502023950 72 168 0.0 0.0 0.00 0.00 0.00 90 1015.1
20260502023447 72 168 0.0 0.0 0.00 0.00 0.00 90 1015.0
20260502022945 72 168 0.0 0.0 0.00 0.00 0.00 90 1014.9
20260502022441 72 168 0.0 0.0 0.00 0.00 0.00 89 1015.0
20260502021938 72 168 0.0 0.0 0.00 0.00 0.00 89 1015.0
20260502021436 73 167 0.0 0.0 0.00 0.00 0.00 89 1014.8
20260502020933 73 167 0.0 0.0 0.00 0.00 0.00 88 1014.9
20260502020431 73 167 0.0 0.0 0.00 0.00 0.00 88 1014.9
20260502015927 73 167 0.0 0.0 0.00 0.00 0.00 88 1014.8
20260502015425 73 167 0.0 0.0 0.00 0.00 0.00 87 1014.9
20260502014921 73 167 0.0 0.0 0.00 0.00 0.00 87 1015.0
20260502014418 73 167 0.0 0.0 0.00 0.00 0.00 87 1014.9
20260502013914 73 167 0.0 0.0 0.00 0.00 0.00 86 1015.0
20260502013410 74 167 0.0 0.0 0.00 0.00 0.00 86 1015.1
20260502012907 74 168 0.0 0.0 0.00 0.00 0.00 86 1015.1
20260502012405 74 165 0.0 0.0 0.00 0.00 0.00 86 1015.2
20260502011902 74 164 0.0 0.0 0.00 0.00 0.00 86 1015.1
20260502011358 74 164 0.0 0.0 0.00 0.00 0.00 86 1015.1
20260502010855 74 164 0.0 0.0 0.00 0.00 0.00 85 1015.1
20260502010352 74 165 0.0 0.0 0.00 0.00 0.00 85 1015.4
20260502005848 74 153 0.0 0.0 0.00 0.00 0.00 84 1015.0
20260502005346 75 152 0.0 0.0 0.00 0.00 0.00 84 1014.8
20260502004843 75 166 0.0 0.0 0.00 0.00 0.00 83 1014.8
20260502004339 75 171 0.0 0.0 0.00 0.00 0.00 83 1014.7
20260502003837 75 171 0.0 0.0 0.00 0.00 0.00 83 1014.9
20260502003334 75 172 0.0 0.0 0.00 0.00 0.00 82 1014.7
20260502002830 75 178 0.0 0.0 0.00 0.00 0.00 82 1014.7
20260502002328 75 153 0.0 0.0 0.00 0.00 0.00 81 1014.5
20260502001825 76 153 0.0 0.0 0.00 0.00 0.00 81 1014.4
20260502001323 76 153 0.0 0.0 0.00 0.00 0.00 81 1014.2
20260502000820 76 154 0.0 0.0 0.00 0.00 0.00 80 1014.6
20260502000318 76 146 0.0 0.0 0.00 0.00 0.00 80 1014.4
20260501235814 76 153 0.0 0.0 0.00 0.00 0.00 80 1014.3
20260501235310 76 151 0.0 0.0 0.00 0.00 0.00 79 1014.2
20260501234805 77 152 0.0 0.0 0.00 0.00 0.00 79 1014.2
20260501234303 77 143 1.0 1.0 0.00 0.00 0.00 79 1014.3
20260501233801 77 153 0.0 0.0 0.00 0.00 0.00 79 1014.0
20260501233258 77 141 1.0 1.0 0.00 0.00 0.00 78 1014.2
20260501232753 77 156 0.0 0.0 0.00 0.00 0.00 78 1013.9
20260501232251 77 152 1.0 1.0 0.00 0.00 0.00 77 1013.8
20260501231748 77 73 2.0 2.0 0.00 0.00 0.00 76 1013.7
20260501231246 78 113 2.0 3.0 0.00 0.00 0.00 75 1013.7
20260501230744 78 106 0.0 1.0 0.00 0.00 0.00 74 1013.7
20260501230243 78 102 2.0 2.0 0.00 0.00 0.00 74 1013.4
20260501225740 78 142 1.0 1.0 0.00 0.00 0.00 74 1013.6
20260501225237 78 139 1.0 2.0 0.00 0.00 0.00 74 1013.5
20260501224733 78 97 1.0 1.0 0.00 0.00 0.00 74 1013.6
20260501224231 78 155 0.0 0.0 0.00 0.00 0.00 74 1013.7
20260501223727 78 122 2.0 2.0 0.00 0.00 0.00 74 1013.6
20260501223223 79 107 2.0 2.0 0.00 0.00 0.00 74 1013.6
20260501222719 79 158 1.0 1.0 0.00 0.00 0.00 74 1013.5
20260501222217 79 138 0.0 1.0 0.00 0.00 0.00 74 1013.4
20260501221713 79 136 1.0 1.0 0.00 0.00 0.00 73 1013.1
20260501221211 80 135 1.0 1.0 0.00 0.00 0.00 73 1013.4
20260501220708 80 163 1.0 1.0 0.00 0.00 0.00 73 1013.1
20260501220206 79 157 0.0 1.0 0.00 0.00 0.00 74 1012.9
20260501215702 79 158 1.0 1.0 0.00 0.00 0.00 74 1012.9
20260501215157 80 153 0.0 1.0 0.00 0.00 0.00 74 1013.1
20260501214653 80 126 0.0 1.0 0.00 0.00 0.00 74 1013.4
20260501214148 80 158 3.0 3.0 0.00 0.00 0.00 73 1013.2
20260501213646 80 150 1.0 2.0 0.00 0.00 0.00 73 1013.2
20260501213141 81 90 1.0 2.0 0.00 0.00 0.00 72 1013.1
20260501212638 81 178 2.0 3.0 0.00 0.00 0.00 72 1012.6
20260501212135 82 103 1.0 2.0 0.00 0.00 0.00 71 1012.8
20260501211632 82 125 1.0 1.0 0.00 0.00 0.00 70 1012.8
20260501211129 83 122 1.0 2.0 0.00 0.00 0.00 69 1013.0
20260501210626 83 133 2.0 2.0 0.00 0.00 0.00 67 1013.1
20260501210122 85 122 4.0 5.0 0.00 0.00 0.00 66 1012.9
20260501205619 85 45 3.0 7.0 0.00 0.00 0.00 65 1012.6
20260501205116 85 86 2.0 3.0 0.00 0.00 0.00 65 1013.0
20260501204607 84 1 2.0 5.0 0.00 0.00 0.00 65 1012.9
20260501204103 85 126 2.0 3.0 0.00 0.00 0.00 65 1013.1
20260501203559 86 133 1.0 2.0 0.00 0.00 0.00 63 1013.0